Location: Ashton River Estates
(39.1762°N, 77.0261°W)
Time: 00:21:14
(UTC+00:00)

SKYMED 2 - Pass Details

Date: 29 October 2020
Orbit: 621 x 623 km, 97.9° (Epoch: 03 December)

Event Time Altitude Azimuth Distance (km) Brightness Sun altitude
Rises 22:44:11 0° 20° (NNE) 2,910 6.7 -7.3°
Reaches altitude 10° 22:46:30 10° 27° (NNE) 1,998 5.8 -7.7°
Maximum altitude 22:50:37 41° 98° (E) 906 4.0 -8.5°
Drops below altitude 10° 22:54:42 10° 169° (S) 1,983 6.2 -9.3°
Sets 22:56:58 0° 177° (S) 2,884 7.1 -9.7°
